Location: Badenhausen
(51.7693°N, 10.2068°E)
Time: 20:13:34
(UTC+00:00)

Daily predictions for brighter satellites

Satellite Brightness Start Highest point End
(mag) Time Altitude Azimuth Time Altitude Azimuth Time Altitude Azimuth
CSL-04 Rocket 4.4 18:48:13 10° S 18:53:24 56° WSW 18:58:37 10° NNW
CZ-2C R/B 3.0 18:48:25 10° N 18:53:36 72° WNW 18:58:48 10° SSW
Cosmos 1992 Rocket 4.0 18:49:46 10° NNW 18:55:01 72° ENE 19:00:13 10° SSE
DMSP B5D2-2 4.1 18:51:00 10° NNE 18:56:17 79° ESE 19:01:32 10° SSW
Cosmos 2360 Rocket 3.3 18:51:50 10° NW 18:57:14 45° WSW 19:02:33 10° S
ATLAS 3B R/B 2.9 18:50:57 10° NW 18:57:56 80° NE 19:05:13 10° SE
Cosmos 2058 Rocket 3.4 18:55:11 10° SSE 18:59:18 43° E 19:03:27 10° NNE
Cosmos 1689 Rocket 3.4 18:57:37 10° N 19:00:22 43° WNW 19:03:04 10° SW
COSMOS 2428 2.8 18:55:08 10° NNW 19:00:55 78° ENE 19:06:40 10° SE
Cosmos 1953 Rocket 3.6 18:56:54 10° NNW 19:01:19 85° W 19:05:39 10° S
COSMOS 2487 2.6 18:59:49 10° S 19:03:05 47° ESE 19:06:24 10° NE
USA 186 2.5 19:01:06 10° S 19:04:16 55° W 19:07:20 10° NNW
SME Rocket 3.1 19:00:46 10° NNE 19:04:33 85° WNW 19:09:06 10° SSW
Cosmos 1092 Rocket 4.0 18:58:22 10° N 19:04:42 78° E 19:10:54 10° SSE
USA 215 3.4 18:59:05 10° ESE 19:05:37 79° NNE 19:12:11 10° WNW
Cosmos 1076 Rocket 4.4 19:05:13 10° N 19:09:12 33° ENE 19:13:08 10° SE
Cosmos 1833 4.2 19:04:26 10° SSW 19:10:04 88° ESE 19:15:47 10° NNE
OPS 8737 4.3 19:09:05 10° NW 19:12:04 73° NE 19:15:35 11° SE
NOSS 0 Rocket 4.1 19:06:41 10° NNW 19:12:52 64° NE 19:19:04 10° SE
Cosmos 1818 4.3 19:08:18 10° S 19:13:00 31° ESE 19:17:45 10° NE
ERS-2 2.8 19:10:16 10° N 19:13:52 59° WNW 19:17:28 10° SSW
Cosmos 2219 Rocket 2.4 19:08:37 10° NNW 19:14:20 77° WSW 19:20:00 10° SSE
Cosmos 44 4.0 19:12:44 10° S 19:17:23 36° ESE 19:22:16 10° NE
Resurs 01 Rocket 2.0 19:13:15 10° SE 19:17:33 49° ENE 19:21:52 10° N
Cosmos 1455 2.1 19:16:52 10° S 19:20:34 63° E 19:24:16 10° NNE
ATLAS 5 CENTAUR R/B 3.2 19:20:07 10° W 19:24:04 38° NNW 19:28:37 10° NE
Cosmos 1633 3.8 19:24:49 10° NNE 19:27:54 26° ENE 19:30:05 15° ESE
Resurs 1-3 3.7 19:24:37 10° SSE 19:29:00 84° WSW 19:33:26 10° NNW
Cosmos 1356 3.6 19:26:01 10° N 19:29:23 51° ENE 19:32:12 14° SSE
ATLAS 5 CENTAUR R/B 2.8 19:30:01 10° W 19:31:23 17° SW 19:32:56 10° S
IGS 5A 3.7 19:27:42 11° SSE 19:31:32 53° ENE 19:35:36 10° N
Lacrosse 5 rocket 2.3 19:27:39 10° W 19:31:40 50° NNW 19:35:55 10° ENE
Cosmos 405 Rocket 2.8 19:29:43 10° N 19:33:45 65° ENE 19:37:22 12° SSE
BREEZE-M DEB (TANK) 4.5 19:20:36 10° W 19:38:13 76° S 19:42:11 13° E
Cosmos 2237 Rocket 2.3 19:35:32 10° NNW 19:41:10 64° NE 19:45:36 16° SE
Exosat Rocket 4.2 19:34:58 10° NNW 19:41:52 70° WSW 19:47:07 10° SSE
SJ-6B 4.4 19:39:28 10° SSW 19:42:51 32° W 19:46:16 10° NNW
Cosmos 2279 Rocket 4.1 19:37:02 10° S 19:43:03 57° E 19:49:07 10° NNE
SPOT 5 4.1 19:40:17 15° ESE 19:43:04 26° ENE 19:47:00 10° N
BREEZE-M DEB (TANK) 4.0 19:39:34 10° WSW 19:44:00 47° S 19:48:44 13° ESE
Meteor 2-10 Rocket 4.2 19:39:24 10° SSW 19:44:37 61° WNW 19:50:05 10° N
Spot 2 Rocket 4.1 19:41:31 16° SE 19:45:13 42° ENE 19:50:00 10° N
BREEZE-M DEB (TANK) 4.2 19:42:40 10° WSW 19:46:05 61° SSE 19:55:43 10° E
CZ-2C R/B 4.2 19:42:56 10° NNE 19:47:07 38° E 19:50:38 13° SSE
Cosmos 2026 Rocket 4.3 19:42:03 10° NNW 19:48:04 68° W 19:54:07 10° S
Cosmos 405 4.1 19:47:19 10° SSW 19:50:40 45° WNW 19:54:03 10° N
OBJECT-B 3.2 19:48:41 10° SSW 19:51:19 23° W 19:53:58 10° NW
Terra 3.2 19:50:06 16° ESE 19:52:41 24° ENE 19:56:29 10° N
BREEZE-M DEB (TANK) 4.2 19:51:00 10° WSW 19:55:42 85° SSE 20:16:14 10° ENE
NOSS 3-4 (A) 4.0 19:50:45 10° WSW 19:56:38 62° NW 20:03:06 10° NE
NOSS 3-4 (C) 4.0 19:50:50 10° WSW 19:56:44 62° NW 20:03:13 10° NE
MetOp-B 4.1 19:52:09 14° SSE 19:56:48 80° ENE 20:02:11 10° NNW
Cosmos 2227 Rocket 3.2 19:57:04 19° SE 19:59:37 26° ESE 20:04:14 10° NE
SPOT 1/Viking Rocket 3.6 19:58:13 18° SSE 20:02:09 70° ENE 20:07:22 10° NNW
Cosmos 389 Rocket 2.4 20:00:14 14° S 20:03:09 66° E 20:06:42 10° NNE
Cosmos 2251 Rocket 3.5 19:57:58 10° SSW 20:03:20 84° ESE 20:08:42 10° NNE
Cosmos 2333 Rocket 3.8 19:59:19 10° NW 20:04:19 31° WSW 20:09:17 10° SSW
Cosmos 2266 Rocket 4.2 19:58:59 10° N 20:05:20 60° ENE 20:09:47 20° SSE
Cosmos 2297 Rocket 2.7 20:02:12 12° S 20:06:53 36° ESE 20:12:00 10° NE
Cosmos 1825 3.8 20:04:03 10° NNW 20:07:27 32° W 20:10:50 10° SSW
Cosmos 1634 Rocket 4.4 20:01:41 10° SSW 20:07:57 68° WNW 20:14:11 10° N
BREEZE-M DEB (TANK) 2.4 20:05:54 10° W 20:08:02 34° SSW 20:08:17 33° S
SPOT 3 Rocket 3.9 20:03:44 11° S 20:08:43 66° WSW 20:13:55 10° NNW
Cosmos 2219 3.8 20:05:52 17° SSE 20:09:32 35° ESE 20:14:35 10° NE
ATLAS 2AS CENTAUR R/B 3.2 20:02:26 10° SW 20:10:22 76° NW 20:18:06 10° NE
ARIANE 5 R/B 2.7 20:09:19 25° SE 20:11:46 62° ENE 20:16:07 10° N
Meteor 2-21 Rocket 4.4 20:06:10 10° N 20:12:14 67° ENE 20:16:19 21° SSE
Orbus 7S? 3.5 20:17:37 10° WSW 20:20:47 87° SSE 20:27:24 10° ENE
CZ-4C R/B 3.8 20:17:43 10° W 20:22:50 38° NNW 20:29:01 10° NE
RESURS DK-1 2.9 20:19:13 10° SW 20:23:18 60° NW 20:27:25 10° NNE
Genesis I 3.2 20:19:51 10° NW 20:23:52 78° NE 20:25:22 37° SE
Landsat 7 4.3 20:20:38 15° S 20:24:26 57° W 20:29:09 10° NNW
Meteor 2-16 Rocket 4.4 20:19:31 10° N 20:25:41 71° ENE 20:29:25 25° SSE
USA 245 3.2 20:24:37 28° S 20:26:35 75° WSW 20:29:52 10° NNW
Cosmos-2242 3.1 20:25:50 30° SSE 20:27:44 57° E 20:31:59 10° NNE
Cosmos 2180 Rocket 4.5 20:24:13 10° S 20:30:24 88° W 20:36:35 10° N
Cosmos 1655 Rocket 4.1 20:26:55 10° NNW 20:33:15 81° W 20:37:46 20° S
SL-16 R/B 2.4 20:29:31 10° NNW 20:35:11 62° NE 20:37:53 31° SE
NOSS 3-1 (C) 4.4 20:28:40 10° NW 20:35:32 55° NNE 20:41:19 20° ESE
Cosmos 1980 4.2 20:30:47 10° NW 20:36:20 55° WSW 20:39:44 23° S
Cosmos 614 Rocket 4.2 20:32:55 10° SSW 20:38:03 72° WNW 20:43:11 10° NNE
BREEZE-M DEB (TANK) 4.3 20:35:04 10° W 20:40:08 79° S 21:01:32 10° E
Cosmos 2151 3.5 20:38:46 10° NNW 20:43:00 55° W 20:45:17 25° SSW
Meteor 2-3 Rocket 3.9 20:39:19 10° NNW 20:45:06 75° W 20:48:26 26° S
ATLAS 3B R/B 4.0 20:42:07 10° NW 20:48:09 32° WSW 20:53:12 15° SSW
Cosmos 2344 3.7 20:41:07 10° SW 20:48:32 78° NW 20:56:55 10° NE
USA 215 3.7 20:45:38 27° SSE 20:48:56 49° SW 20:55:16 10° WNW
FALCON 9 DEB 3.1 20:46:40 10° WSW 20:49:45 64° SSW 20:49:45 64° SSW
Meteor 1-27 4.2 20:47:48 29° S 20:50:48 68° E 20:56:37 10° NNE
Cosmos 1812 Rocket 4.4 20:47:57 11° SSW 20:52:09 50° WNW 20:56:32 10° N
Cosmos 2221 3.7 20:53:18 26° E 20:53:18 26° E 20:56:32 10° NNE
CZ-4B DEB 4.3 20:54:11 66° ENE 20:54:11 66° ENE 20:57:17 10° N
Resurs 01 Rocket 3.7 20:50:44 10° SW 20:54:18 23° W 20:57:53 10° NW
Cosmos 1818 4.0 20:50:52 10° SW 20:56:17 64° NW 21:01:45 10° NE
ERS-1 Rocket 3.0 20:54:40 36° S 20:56:45 79° WSW 21:01:48 10° NNW
Okean 3 Rocket 3.5 20:53:28 10° N 20:58:03 89° WSW 20:59:21 47° S
Cosmos 407 Rocket 3.4 20:53:35 12° SSW 20:58:17 85° WNW 21:03:31 10° NNE
Cosmos 44 4.2 20:53:23 10° WSW 20:58:31 55° NW 21:03:52 10° NE
Cosmos 1766 Rocket 3.5 20:58:04 10° NNW 21:02:25 81° W 21:03:29 50° S
Cosmos 1633 4.3 20:59:33 10° NNW 21:02:39 27° W 21:04:10 20° SW
Cosmos 1500 Rocket 4.4 20:59:06 10° N 21:03:14 35° ENE 21:03:43 34° E
Cosmos 1943 4.3 20:59:32 10° NNW 21:04:39 34° NE 21:07:11 24° E
CARTOSAT-1 4.2 21:04:22 32° SSW 21:05:57 48° W 21:10:11 10° NNW
Meteor 1-4 Rocket 2.7 21:10:11 58° NE 21:10:11 58° NE 21:13:11 10° NNE
ATLAS 5 CENTAUR R/B 4.2 21:06:22 10° NW 21:09:59 22° N 21:14:03 10° NE
Lacrosse 5 rocket 2.5 21:07:22 10° WNW 21:11:26 42° N 21:14:11 19° ENE
Meteor 2-15 4.4 21:09:37 40° SSE 21:11:40 63° E 21:17:40 10° NNE
Cosmos 1954 Rocket 3.9 21:12:16 47° S 21:13:36 66° ESE 21:18:45 10° NNE
Cosmos 1869 3.3 21:18:39 66° SW 21:19:08 78° W 21:23:07 10° N
COSMOS 2455 3.0 21:18:15 45° SE 21:19:10 49° ESE 21:24:58 10° NE
Meteor 2-2 Rocket 4.5 21:18:01 45° SE 21:19:11 53° E 21:24:44 10° NNE
SPOT 5 3.4 21:19:30 37° SSW 21:20:53 50° W 21:25:32 10° NNW
Cosmos 1140 Rocket 3.8 21:18:31 15° SW 21:22:48 63° WNW 21:27:55 10° NNE
Cosmos 2237 Rocket 3.7 21:20:11 10° NW 21:24:50 27° WSW 21:27:26 19° SW
SeaSat 1 3.4 21:21:10 10° NE 21:24:37 31° E 21:24:37 31° E
STPSAT 2 (USA 217) 4.5 21:24:27 10° NNW 21:28:59 77° WSW 21:29:24 70° SSW
Terra 2.2 21:28:59 45° SSW 21:30:06 57° W 21:34:50 10° NNW
Cosmos 1606 4.4 21:34:03 23° NE 21:34:03 23° NE 21:36:02 10° NNE
Timation 1 Rocket 4.2 21:33:37 46° S 21:35:21 70° ESE 21:41:18 10° NE
Cosmos 2082 3.5 21:39:13 54° S 21:40:26 74° ESE 21:46:04 10° NNE
Cosmos 2263 Rocket 3.3 21:42:46 27° E 21:42:46 27° E 21:46:28 10° NE
USA 229 DEB 3.9 21:35:37 10° NW 21:42:50 74° NE 21:46:07 37° ESE
USA 229 3.9 21:35:43 10° NW 21:42:55 74° NE 21:46:14 37° ESE
Cosmos 468 Rocket 4.0 21:37:52 10° NNW 21:42:59 67° WSW 21:43:44 58° SSW
Cosmos 2227 Rocket 2.5 21:38:45 16° SW 21:43:15 66° NW 21:48:55 10° NNE
Cosmos 1603 3.9 21:43:38 10° NNW 21:49:21 63° NE 21:50:37 50° ESE
Cosmos 1842 Rocket 3.5 21:49:34 88° W 21:49:35 88° WNW 21:54:05 10° N
Cosmos 2297 Rocket 3.0 21:45:20 10° SW 21:50:48 49° NW 21:56:19 10° NNE
Cosmos 841 Rocket 3.4 21:45:37 10° NNW 21:50:53 74° ENE 21:51:30 65° ESE
H-2A R/B 4.2 21:48:49 10° N 21:52:53 49° WNW 21:53:41 43° WSW
Cosmos 2219 3.9 21:48:04 10° SW 21:53:32 51° NW 21:59:02 10° NNE
Cosmos 1745 Rocket 4.0 21:48:44 10° N 21:55:07 77° E 21:56:33 55° SSE
Cosmos 1814 Rocket 4.1 21:53:25 10° NNW 21:58:44 63° ENE 21:59:24 58° E
NOSS 3-1 (A) 4.0 21:53:25 10° NW 22:00:40 82° NE 22:04:04 40° SE
Cosmos 1709 Rocket 4.3 21:54:43 10° N 22:00:51 53° ENE 22:02:05 46° ESE
Cosmos 921 Rocket 3.2 21:57:35 10° NNW 22:01:48 69° NE 22:01:48 69° NE
Cosmos 1862 4.2 21:58:36 10° NNW 22:02:04 43° W 22:02:04 43° W
ATLAS 2AS CENTAUR R/B 4.3 21:55:14 10° W 22:02:30 38° NNW 22:09:28 10° NE
Cosmos 1763 Rocket 3.9 21:57:41 10° NW 22:02:34 48° WSW 22:02:58 47° WSW
Cosmos 1437 Rocket 4.5 22:08:30 24° NE 22:08:30 24° NE 22:10:23 10° NNE
Meteor 1-25 Rocket 4.5 22:01:22 10° N 22:07:00 57° ENE 22:07:50 52° ESE
S3M 4.0 22:08:54 58° SSE 22:10:07 74° E 22:16:31 10° NNE
Cosmos 2084 Rocket 3.9 22:10:44 55° N 22:10:44 55° N 22:14:16 10° NE
Cosmos 1805 Rocket 3.7 22:07:15 10° N 22:11:11 71° N 22:11:11 71° N
Spot 4 3.7 22:11:46 86° SE 22:11:51 88° ENE 22:16:45 10° NNW
CZ-4C R/B 4.4 22:07:44 10° NW 22:13:03 30° N 22:19:21 10° ENE
SL-16 R/B 3.5 22:14:11 10° NW 22:18:56 28° WSW 22:19:46 27° WSW
Sich 1 3.3 22:17:14 10° N 22:20:54 63° N 22:20:54 63° N
Cosmos 1743 Rocket 4.3 22:17:23 10° NNW 22:21:17 45° W 22:21:17 45° W
Cosmos 540 Rocket 3.6 22:17:00 10° NNW 22:22:03 60° WSW 22:22:05 60° WSW
Cosmos 1174 4.4 22:18:20 10° NW 22:22:44 58° NNE 22:22:44 58° NNE
NOSS 3-1 (C) 4.2 22:19:30 10° NW 22:26:45 60° SW 22:28:42 49° S
Meteor 1-20 Rocket 4.1 22:22:52 10° NNW 22:28:45 84° ENE 22:29:20 73° SSE
Cosmos 1570 Rocket 3.9 22:23:57 10° NNW 22:29:16 78° WSW 22:29:20 77° WSW
Cosmos 2221 3.6 22:30:07 36° W 22:30:21 36° WNW 22:34:21 10° N
Cosmos 2227 4.3 22:34:45 62° ESE 22:34:45 62° ESE 22:40:18 10° NE
Cosmos 1633 Rocket 3.6 22:31:00 10° N 22:34:39 52° NE 22:34:39 52° NE
Cosmos 44 Rocket 3.6 22:36:36 61° W 22:37:21 71° NW 22:42:36 10° NE
Aureole 1 Rocket 3.5 22:38:07 72° WSW 22:38:36 80° WNW 22:43:17 10° NNE
Cosmos 1553 Rocket 4.4 22:39:11 40° WSW 22:40:58 52° WNW 22:46:56 10° N
Cosmos 1666 Rocket 3.9 22:37:49 10° N 22:41:42 65° N 22:41:42 65° N
Cosmos 1943 3.3 22:43:30 10° NW 22:48:59 58° WSW 22:48:59 58° WSW
ALOS 2 3.0 22:49:56 58° NW 22:49:56 58° NW 22:53:37 10° NNW
Cosmos 1741 Rocket 4.4 22:48:41 52° W 22:49:31 59° WNW 22:54:46 10° NNE
Lacrosse 5 rocket 2.3 22:46:37 10° WNW 22:49:48 48° NW 22:49:48 48° NW
Cosmos 1782 4.1 22:54:23 36° NE 22:54:23 36° NE 22:57:02 10° NNE
Cosmos 1933 4.2 22:57:04 49° N 22:57:04 49° N 23:00:08 10° N
ATLAS 5 CENTAUR R/B 3.8 22:51:41 10° NW 22:56:05 29° NNE 23:01:10 10° E
Cosmos 1328 Rocket 4.4 22:57:28 44° NE 22:57:28 44° NE 23:00:53 10° NNE
Thor Agena Rocket 3.9 22:54:01 10° NNE 22:58:37 53° E 22:58:37 53° E
SeaSat 1 3.2 22:58:33 10° NNE 23:03:19 49° NW 23:04:24 42° W
Cosmos 2208 Rocket 4.5 22:58:53 10° NNW 23:03:42 50° W 23:03:42 50° W
COSMOS 2455 3.7 23:01:18 20° WSW 23:05:14 46° NW 23:11:02 10° NNE
Cosmos 2315 Rocket 3.9 23:10:31 65° SW 23:11:29 79° W 23:17:53 10° N
Cosmos 2184 Rocket 4.1 23:05:10 10° N 23:11:32 67° ENE 23:12:34 58° SE
Iridium 4 Rocket 3.4 23:11:57 78° NW 23:11:57 78° NW 23:17:01 10° N
Cosmos 1151 Rocket 3.6 23:21:43 55° N 23:21:43 55° N 23:25:11 10° N
Meteor 1-14 Rocket 4.2 23:15:03 10° NNW 23:21:04 81° W 23:21:32 75° SSW
Cosmos 968 Rocket 3.7 23:24:12 62° E 23:24:12 62° E 23:29:03 10° NNE
Cosmos 2263 Rocket 2.5 23:24:25 52° W 23:25:21 59° NW 23:30:54 10° NNE
USA 281 3.1 23:33:03 63° S 23:34:13 82° WSW 23:40:51 10° NNW
NOSS 2-2 (D) 4.2 23:30:00 10° NW 23:35:06 90° ENE 23:36:02 66° SE
SL-4 R/B 3.9 23:41:44 26° E 23:41:44 26° E 23:43:51 10° E
Cosmos 1844 Rocket 3.0 23:39:31 50° ESE 23:39:31 50° ESE 23:44:40 10° NE
Cosmos 1486 Rocket 4.0 23:40:25 72° E 23:40:25 72° E 23:45:35 10° NNE
Cosmos 2074 Rocket 3.9 23:36:22 10° NNW 23:42:38 77° W 23:43:22 68° SSW
Cosmos 1869 Rocket 4.2 23:40:24 10° N 23:44:17 50° NE 23:44:17 50° NE
Helios 1A 3.6 23:45:17 52° NE 23:45:17 52° NE 23:48:59 10° N
Meteor 1-5 Rocket 4.1 23:41:24 10° NNW 23:47:10 72° W 23:47:20 71° WSW
Meteor 2-6 Rocket 4.0 23:48:13 78° ESE 23:48:21 79° E 23:53:46 10° NNE
Cosmos 2082 Rocket 4.3 23:44:14 10° NNW 23:48:49 25° NE 23:53:22 10° E
Cosmos 1515 Rocket 3.9 23:49:36 64° N 23:49:36 64° N 23:53:26 10° N
Cosmos 1271 Rocket 4.2 23:53:58 33° ENE 23:53:58 33° ENE 23:56:38 10° NNE
SJ 16-02 3.8 23:56:01 13° E 23:56:05 13° E 23:57:58 10° ENE
